OVERFALLS Weather Reports


Display with metric or nautical units.
time (UTC)temp
F
wind
direction
speed
MPH
gust
MPH
rain 1hr
in
rain 24hr
in
rain mn
in
humidity
%
barometer
mb
20220525025532 58 74 8.0 14.0 0.00 0.10 0.10 87 1026.1
20220525025033 57 80 7.0 12.0 0.00 0.10 0.10 86 1026.0
20220525024542 58 76 6.0 14.0 0.00 0.10 0.10 86 1026.1
20220525024036 58 60 7.0 14.0 0.00 0.10 0.10 85 1026.1
20220525023535 58 98 8.0 14.0 0.00 0.10 0.10 85 1026.1
20220525023047 58 109 6.0 15.0 0.00 0.10 0.10 85 1026.1
20220525022537 58 83 6.0 16.0 0.00 0.10 0.10 85 1026.1
20220525022036 58 78 8.0 16.0 0.00 0.10 0.10 84 1026.2
20220525021557 58 87 8.0 16.0 0.00 0.10 0.10 84 1026.1
20220525021032 58 84 10.0 16.0 0.00 0.10 0.10 83 1026.0
20220525020533 58 82 7.0 16.0 0.00 0.10 0.10 83 1026.0
20220525020113 58 83 10.0 17.0 0.00 0.10 0.10 83 1025.9
20220525015534 58 73 10.0 17.0 0.00 0.10 0.10 82 1025.9
20220525015033 58 85 9.0 17.0 0.00 0.10 0.10 82 1026.0
20220525014550 58 61 9.0 17.0 0.00 0.10 0.10 82 1025.8
20220525014033 58 59 9.0 17.0 0.00 0.10 0.10 82 1025.8
20220525013534 58 65 10.0 16.0 0.00 0.10 0.10 80 1025.7
20220525013049 58 78 8.0 15.0 0.00 0.10 0.10 80 1025.6
20220525012531 59 33 10.0 15.0 0.00 0.10 0.10 80 1025.6
20220525012032 59 65 8.0 15.0 0.00 0.10 0.10 79 1025.6
20220525011608 59 65 8.0 14.0 0.00 0.10 0.10 79 1025.5
20220525011033 59 57 8.0 15.0 0.00 0.10 0.10 79 1025.4
20220525010536 59 49 8.0 15.0 0.00 0.10 0.10 78 1025.5
20220525010043 59 52 8.0 14.0 0.00 0.10 0.10 78 1025.5
20220525005533 59 77 8.0 14.0 0.00 0.10 0.10 78 1025.5
20220525005033 59 28 8.0 14.0 0.00 0.10 0.10 77 1025.4
20220525004551 59 36 8.0 14.0 0.00 0.10 0.10 77 1025.3
20220525004034 59 57 7.0 12.0 0.00 0.10 0.10 77 1025.3
20220525003534 59 45 7.0 15.0 0.00 0.10 0.10 78 1025.4
20220525003102 59 44 8.0 15.0 0.00 0.10 0.10 77 1025.2
20220525002533 59 43 7.0 14.0 0.00 0.10 0.10 78 1025.4
20220525002031 58 43 7.0 14.0 0.00 0.10 0.10 77 1025.2
20220525001546 58 51 8.0 18.0 0.00 0.10 0.10 76 1025.0
20220525001032 58 49 9.0 21.0 0.00 0.10 0.10 76 1025.1
20220525000537 58 54 10.0 21.0 0.00 0.10 0.10 77 1025.1
20220525000055 58 46 8.0 16.0 0.00 0.10 0.10 77 1025.0
20220524235537 58 38 6.0 16.0 0.00 0.10 0.10 79 1025.0
20220524235031 58 63 11.0 16.0 0.00 0.10 0.10 78 1025.0
20220524234547 58 63 10.0 15.0 0.00 0.10 0.10 78 1025.1
20220524234033 58 71 10.0 16.0 0.00 0.10 0.10 78 1025.0
20220524233533 58 61 8.0 16.0 0.00 0.10 0.10 79 1025.0
20220524233048 58 76 10.0 16.0 0.00 0.10 0.10 78 1024.9
20220524232537 58 44 9.0 16.0 0.00 0.10 0.10 77 1025.0
20220524232032 58 63 11.0 16.0 0.00 0.10 0.10 77 1024.9
20220524231552 58 74 9.0 17.0 0.00 0.10 0.10 76 1024.9
20220524231034 58 60 10.0 17.0 0.00 0.10 0.10 77 1024.8
20220524230533 58 57 11.0 17.0 0.00 0.10 0.10 76 1024.8
20220524230048 58 55 9.0 17.0 0.00 0.10 0.10 77 1024.9
20220524225533 58 58 11.0 17.0 0.00 0.10 0.10 79 1024.9
20220524225030 59 44 9.0 17.0 0.00 0.10 0.10 78 1024.8
20220524224538 58 46 10.0 17.0 0.00 0.10 0.10 77 1024.8
20220524224032 58 25 10.0 17.0 0.00 0.10 0.10 77 1024.9
20220524223536 58 78 8.0 15.0 0.00 0.10 0.10 77 1024.9
20220524223044 59 74 8.0 15.0 0.00 0.10 0.10 77 1024.8
20220524222535 58 46 8.0 15.0 0.00 0.10 0.10 76 1024.8
20220524222031 58 63 8.0 18.0 0.00 0.10 0.10 76 1024.8
20220524221546 58 40 9.0 18.0 0.00 0.10 0.10 77 1024.6
20220524221033 58 91 10.0 18.0 0.00 0.10 0.10 76 1024.6
20220524220533 58 46 8.0 14.0 0.00 0.10 0.10 77 1024.5
20220524220048 58 48 8.0 14.0 0.00 0.10 0.10 77 1024.6
20220524215531 58 75 9.0 14.0 0.00 0.10 0.10 77 1024.6
20220524215033 58 64 10.0 15.0 0.00 0.10 0.10 77 1024.6
20220524214539 58 71 9.0 16.0 0.00 0.10 0.10 78 1024.6
20220524214032 58 105 10.0 17.0 0.00 0.10 0.10 78 1024.6
20220524213537 58 67 11.0 19.0 0.00 0.10 0.10 78 1024.7
20220524213055 58 79 11.0 19.0 0.00 0.10 0.10 78 1024.7
20220524212534 58 92 11.0 19.0 0.00 0.10 0.10 78 1024.7
20220524212031 58 62 12.0 18.0 0.00 0.10 0.10 78 1024.7
20220524211542 59 61 10.0 19.0 0.00 0.10 0.10 78 1024.7
20220524211031 59 114 12.0 19.0 0.00 0.10 0.10 79 1024.8
20220524210534 59 42 11.0 17.0 0.00 0.10 0.10 78 1024.9
20220524210048 59 60 10.0 17.0 0.00 0.10 0.10 78 1024.8
20220524205530 59 60 9.0 17.0 0.00 0.10 0.10 78 1024.9
20220524205033 58 87 12.0 16.0 0.00 0.10 0.10 78 1024.9
20220524204545 58 65 11.0 18.0 0.00 0.10 0.10 78 1025.0
20220524204030 59 93 9.0 19.0 0.00 0.10 0.10 78 1025.0
20220524203535 59 74 13.0 19.0 0.00 0.10 0.10 77 1024.9
20220524203050 59 103 11.0 17.0 0.00 0.10 0.10 77 1024.9
20220524202531 59 72 10.0 20.0 0.00 0.10 0.10 77 1025.0
20220524202034 59 52 11.0 20.0 0.00 0.10 0.10 76 1024.9
20220524201605 59 64 9.0 18.0 0.00 0.10 0.10 76 1024.9
20220524201033 59 94 13.0 20.0 0.00 0.10 0.10 76 1025.0
20220524200534 59 104 12.0 21.0 0.00 0.10 0.10 76 1024.9
20220524200051 59 55 13.0 21.0 0.00 0.10 0.10 76 1024.9
20220524195531 59 79 11.0 18.0 0.00 0.10 0.10 76 1024.8
20220524195037 59 79 11.0 18.0 0.00 0.10 0.10 77 1024.9
20220524194542 59 97 13.0 18.0 0.00 0.10 0.10 77 1025.0
20220524194033 59 90 11.0 19.0 0.00 0.10 0.10 78 1025.1
20220524193531 59 113 12.0 19.0 0.00 0.10 0.10 77 1025.2
20220524193035 59 80 10.0 15.0 0.00 0.10 0.10 77 1025.2
20220524192530 59 92 10.0 17.0 0.00 0.10 0.10 77 1025.2
20220524192030 59 55 10.0 18.0 0.00 0.10 0.10 77 1025.3
20220524191548 59 87 12.0 18.0 0.00 0.10 0.10 77 1025.3
20220524191031 59 81 10.0 18.0 0.00 0.10 0.10 77 1025.3
20220524190533 59 111 8.0 19.0 0.00 0.10 0.10 78 1025.3
20220524190046 59 105 12.0 19.0 0.00 0.10 0.10 77 1025.5
20220524185531 59 67 13.0 19.0 0.00 0.10 0.10 78 1025.2
20220524185036 59 101 12.0 20.0 0.00 0.10 0.10 77 1025.1
20220524184536 59 120 10.0 20.0 0.00 0.10 0.10 78 1025.1
20220524184034 59 109 12.0 24.0 0.00 0.10 0.10 77 1025.0
20220524183533 59 90 12.0 24.0 0.00 0.10 0.10 77 1025.1
20220524183045 59 65 13.0 21.0 0.00 0.10 0.10 78 1025.0
20220524182534 59 90 10.0 20.0 0.00 0.10 0.10 78 1025.0
20220524182031 59 69 12.0 22.0 0.00 0.10 0.10 78 1025.2
20220524181549 59 94 12.0 23.0 0.00 0.10 0.10 78 1025.2
20220524181032 59 98 12.0 23.0 0.00 0.10 0.10 78 1025.2
20220524180534 59 80 12.0 22.0 0.00 0.10 0.10 78 1025.3
20220524180109 59 119 12.0 22.0 0.00 0.10 0.10 77 1025.2
20220524175531 59 115 11.0 19.0 0.00 0.10 0.10 79 1025.2
20220524175033 59 94 12.0 19.0 0.00 0.10 0.10 78 1025.2
20220524174543 59 117 12.0 21.0 0.00 0.10 0.10 78 1025.2
20220524174034 59 119 13.0 21.0 0.00 0.10 0.10 78 1025.3
20220524173532 59 86 11.0 19.0 0.00 0.10 0.10 77 1025.2
20220524173035 59 63 11.0 19.0 0.00 0.10 0.10 77 1025.2
20220524172533 59 94 8.0 18.0 0.00 0.10 0.10 79 1025.4
20220524172034 59 99 11.0 19.0 0.00 0.10 0.10 79 1025.5
20220524171533 59 76 9.0 22.0 0.00 0.10 0.10 78 1025.6
20220524171033 59 104 10.0 22.0 0.00 0.10 0.10 78 1025.8
20220524170532 59 134 9.0 19.0 0.00 0.10 0.10 78 1025.7
20220524170033 59 86 11.0 19.0 0.00 0.10 0.10 78 1025.6
20220524165534 59 96 9.0 16.0 0.00 0.10 0.10 78 1025.5
20220524165034 59 65 9.0 16.0 0.00 0.10 0.10 78 1025.5
20220524164552 59 100 10.0 16.0 0.00 0.10 0.10 79 1025.6
20220524164031 59 105 10.0 18.0 0.00 0.10 0.10 80 1025.6
20220524163530 59 69 11.0 18.0 0.00 0.10 0.10 79 1025.7
20220524163046 59 77 9.0 18.0 0.00 0.10 0.10 79 1025.7
20220524162532 59 95 10.0 18.0 0.00 0.10 0.10 80 1025.8
20220524162034 59 80 11.0 18.0 0.00 0.10 0.10 81 1025.8
20220524161540 59 105 9.0 16.0 0.00 0.10 0.10 81 1025.9
20220524161034 59 72 11.0 16.0 0.00 0.10 0.10 81 1025.9
20220524160531 59 79 7.0 16.0 0.00 0.10 0.10 82 1025.9
20220524160048 59 96 12.0 16.0 0.00 0.10 0.10 81 1025.9
20220524155532 59 110 10.0 15.0 0.00 0.10 0.10 82 1026.0
20220524155034 59 93 10.0 15.0 0.00 0.10 0.10 82 1026.0
20220524154542 59 96 9.0 14.0 0.00 0.10 0.10 82 1025.9
20220524154031 59 99 8.0 15.0 0.00 0.10 0.10 82 1025.8
20220524153533 59 108 10.0 15.0 0.00 0.10 0.10 82 1025.9
20220524153126 59 121 9.0 14.0 0.00 0.10 0.10 82 1026.0
20220524152531 59 93 9.0 14.0 0.00 0.10 0.10 82 1025.9
20220524152031 59 103 7.0 13.0 0.00 0.10 0.10 84 1025.8
20220524151546 59 112 8.0 13.0 0.00 0.10 0.10 83 1025.8
20220524151037 59 108 8.0 12.0 0.00 0.10 0.10 84 1025.9
20220524150532 59 121 7.0 14.0 0.00 0.10 0.10 86 1025.7
20220524150039 58 107 8.0 14.0 0.01 0.10 0.10 86 1025.7
20220524145529 58 80 7.0 12.0 0.01 0.10 0.10 87 1025.7
20220524145033 58 93 6.0 10.0 0.01 0.10 0.10 89 1025.6
20220524144547 58 118 6.0 11.0 0.01 0.10 0.10 89 1025.5
20220524144031 58 95 7.0 12.0 0.00 0.09 0.09 89 1025.4
20220524143537 58 96 8.0 12.0 0.00 0.09 0.09 89 1025.3
20220524143100 58 106 6.0 12.0 0.00 0.09 0.09 89 1025.3
20220524142536 58 82 7.0 13.0 0.00 0.09 0.09 89 1025.2
20220524142035 58 122 8.0 14.0 0.00 0.09 0.09 89 1025.0
20220524141541 58 113 9.0 14.0 0.00 0.09 0.09 89 1024.8
20220524141033 58 101 9.0 13.0 0.00 0.09 0.09 89 1024.9
20220524140532 58 107 7.0 13.0 0.00 0.09 0.09 90 1024.9
20220524140053 58 67 7.0 13.0 0.00 0.08 0.08 90 1024.9
20220524135540 59 96 7.0 15.0 0.00 0.08 0.08 90 1024.7
20220524135036 58 113 6.0 15.0 0.00 0.08 0.08 90 1024.7
20220524134548 59 90 8.0 13.0 0.00 0.08 0.08 91 1024.6
20220524134032 59 92 9.0 14.0 0.00 0.08 0.08 91 1024.4
20220524133533 59 105 9.0 15.0 0.00 0.08 0.08 91 1024.4
20220524133046 59 82 8.0 15.0 0.00 0.08 0.08 92 1024.3
20220524132536 58 92 9.0 16.0 0.01 0.08 0.08 92 1024.2
20220524132037 58 76 10.0 16.0 0.01 0.08 0.08 93 1024.2
20220524131605 58 91 8.0 14.0 0.01 0.08 0.08 93 1024.2
20220524131032 58 85 9.0 14.0 0.01 0.08 0.08 93 1024.0
20220524130534 58 97 7.0 14.0 0.02 0.08 0.08 94 1024.0
20220524130040 58 51 6.0 14.0 0.02 0.08 0.08 94 1024.0
20220524125532 58 56 8.0 14.0 0.02 0.08 0.08 94 1024.0
20220524125033 58 40 7.0 14.0 0.02 0.08 0.08 94 1023.9
20220524124548 58 96 7.0 14.0 0.02 0.08 0.08 94 1023.9
20220524124032 58 86 7.0 12.0 0.01 0.07 0.07 94 1024.0
20220524123531 58 92 7.0 12.0 0.02 0.07 0.07 94 1023.8
20220524123050 58 78 7.0 12.0 0.02 0.07 0.07 94 1023.9
20220524122531 58 84 6.0 14.0 0.01 0.07 0.07 94 1023.9
20220524122033 58 79 7.0 14.0 0.01 0.07 0.07 94 1023.8
20220524121545 58 48 6.0 13.0 0.01 0.07 0.07 94 1023.6
20220524121031 58 66 5.0 12.0 0.02 0.07 0.07 93 1023.7
20220524120532 58 81 7.0 12.0 0.01 0.06 0.06 93 1023.6
20220524120055 58 73 7.0 12.0 0.01 0.06 0.06 93 1023.5
20220524115535 58 77 6.0 12.0 0.02 0.06 0.06 93 1023.5
20220524115033 58 75 8.0 13.0 0.02 0.06 0.06 93 1023.1
20220524114542 58 69 7.0 13.0 0.02 0.06 0.06 93 1023.1
20220524114032 58 86 8.0 13.0 0.02 0.06 0.06 93 1023.0
20220524113533 58 64 7.0 14.0 0.01 0.05 0.05 93 1023.0
20220524113045 58 97 8.0 14.0 0.02 0.05 0.05 93 1022.8
20220524112533 58 90 8.0 15.0 0.02 0.05 0.05 93 1022.8
20220524112037 58 53 7.0 15.0 0.02 0.05 0.05 93 1022.7
20220524111537 58 106 8.0 15.0 0.02 0.05 0.05 93 1022.8
20220524111032 58 100 8.0 15.0 0.01 0.04 0.04 93 1022.8
20220524110537 59 61 8.0 15.0 0.01 0.04 0.04 92 1022.8
20220524110046 59 79 6.0 13.0 0.00 0.03 0.03 92 1022.8
20220524105534 59 88 7.0 13.0 0.00 0.03 0.03 92 1022.8
20220524105033 59 65 5.0 13.0 0.00 0.03 0.03 91 1022.8
20220524104549 59 65 7.0 13.0 0.00 0.03 0.03 91 1022.8
20220524104034 59 55 6.0 10.0 0.00 0.03 0.03 91 1022.8
20220524103531 59 53 5.0 10.0 0.00 0.03 0.03 90 1022.7
20220524103045 59 69 5.0 11.0 0.00 0.03 0.03 90 1022.9
20220524102533 59 61 6.0 12.0 0.00 0.03 0.03 89 1022.8
20220524102034 59 38 6.0 12.0 0.00 0.03 0.03 89 1022.8
20220524101545 59 46 6.0 10.0 0.00 0.03 0.03 89 1022.8
20220524101034 59 53 4.0 9.0 0.00 0.03 0.03 89 1022.9
20220524100535 59 54 4.0 9.0 0.00 0.03 0.03 88 1023.0
20220524100042 59 33 4.0 9.0 0.00 0.03 0.03 88 1023.0
20220524095532 59 53 4.0 9.0 0.00 0.03 0.03 88 1023.0
20220524095032 59 53 3.0 10.0 0.00 0.03 0.03 89 1023.0
20220524094559 59 49 5.0 10.0 0.00 0.03 0.03 88 1023.0
20220524094032 59 49 5.0 9.0 0.00 0.03 0.03 88 1023.0
20220524093532 59 51 4.0 8.0 0.00 0.03 0.03 88 1023.0
20220524093045 59 44 5.0 7.0 0.00 0.03 0.03 87 1023.1
20220524092537 59 38 3.0 5.0 0.01 0.03 0.03 87 1023.2
20220524092033 59 48 3.0 7.0 0.01 0.03 0.03 87 1023.2
20220524091555 59 21 3.0 7.0 0.01 0.03 0.03 87 1023.3
20220524091032 59 24 3.0 5.0 0.01 0.03 0.03 88 1023.3
20220524090532 59 32 3.0 5.0 0.01 0.03 0.03 88 1023.2
20220524090046 59 28 3.0 5.0 0.01 0.03 0.03 89 1023.3
20220524085532 59 25 3.0 5.0 0.01 0.03 0.03 89 1023.2
20220524085033 59 32 3.0 6.0 0.01 0.02 0.02 88 1023.3
20220524084541 59 32 3.0 6.0 0.01 0.02 0.02 88 1023.4
20220524084034 59 344 3.0 6.0 0.01 0.02 0.02 87 1023.5
20220524083532 59 345 3.0 5.0 0.02 0.02 0.02 87 1023.5
20220524083043 59 11 2.0 5.0 0.01 0.01 0.01 88 1023.5
20220524082537 59 340 2.0 5.0 0.01 0.01 0.01 88 1023.5
20220524082034 59 351 2.0 5.0 0.01 0.01 0.01 89 1023.6
20220524081546 59 360 2.0 4.0 0.01 0.01 0.01 90 1023.4
20220524081033 59 19 2.0 4.0 0.01 0.01 0.01 90 1023.6
20220524080533 59 346 1.0 4.0 0.01 0.01 0.01 90 1023.5
20220524080049 58 284 0.0 3.0 0.01 0.01 0.01 89 1023.6
20220524075537 59 268 1.0 3.0 0.01 0.01 0.01 89 1023.7
20220524075033 59 242 1.0 2.0 0.00 0.00 0.00 89 1023.7
20220524074548 59 242 1.0 2.0 0.00 0.00 0.00 89 1023.7
20220524074033 59 238 0.0 3.0 0.00 0.00 0.00 89 1023.7
20220524073531 59 243 1.0 3.0 0.00 0.00 0.00 88 1023.7
20220524073037 59 240 1.0 3.0 0.00 0.00 0.00 88 1023.6
20220524072535 59 230 0.0 2.0 0.00 0.00 0.00 87 1023.5
20220524072035 59 230 0.0 3.0 0.00 0.00 0.00 86 1023.5
20220524071552 59 230 1.0 3.0 0.00 0.00 0.00 86 1023.4
20220524071032 59 194 0.0 2.0 0.00 0.00 0.00 85 1023.3
20220524070533 59 194 0.0 2.0 0.00 0.00 0.00 85 1023.3
20220524070043 59 194 0.0 2.0 0.00 0.00 0.00 85 1023.2
20220524065533 59 0 0.0 1.0 0.00 0.00 0.00 84 1023.1
20220524065034 59 0 0.0 2.0 0.00 0.00 0.00 84 1023.1
20220524064545 59 0 0.0 4.0 0.00 0.00 0.00 85 1023.1
20220524064031 59 0 1.0 4.0 0.00 0.00 0.00 85 1023.2
20220524063532 59 0 0.0 2.0 0.00 0.00 0.00 86 1023.1
20220524063041 59 0 0.0 3.0 0.00 0.00 0.00 86 1023.0
20220524062531 59 0 0.0 4.0 0.00 0.00 0.00 87 1023.1
20220524062033 59 123 1.0 4.0 0.00 0.00 0.00 86 1023.0
20220524061543 59 107 2.0 4.0 0.00 0.00 0.00 85 1022.9
20220524061034 60 111 1.0 4.0 0.00 0.00 0.00 85 1023.0
20220524060531 60 100 2.0 4.0 0.00 0.00 0.00 84 1023.0
20220524060055 60 148 1.0 4.0 0.00 0.00 0.00 83 1023.2
20220524055534 60 150 0.0 4.0 0.00 0.00 0.00 83 1023.3
20220524055036 60 138 1.0 4.0 0.00 0.00 0.00 83 1023.4
20220524054546 60 0 1.0 4.0 0.00 0.00 0.00 83 1023.5
20220524054033 60 144 1.0 4.0 0.00 0.00 0.00 82 1023.5
20220524053536 60 0 1.0 6.0 0.00 0.00 0.00 83 1023.4
20220524053048 60 176 2.0 8.0 0.00 0.00 0.00 81 1023.4
20220524052535 60 119 3.0 8.0 0.00 0.00 0.00 81 1023.4
20220524052033 60 131 5.0 8.0 0.00 0.00 0.00 80 1023.4
20220524051545 60 112 3.0 8.0 0.00 0.00 0.00 80 1023.2
20220524051032 60 97 5.0 8.0 0.00 0.00 0.00 79 1023.2
20220524050534 61 122 4.0 9.0 0.00 0.00 0.00 79 1023.2
20220524050047 61 114 6.0 9.0 0.00 0.00 0.00 77 1023.2
20220524045532 61 118 5.0 9.0 0.00 0.00 0.00 77 1023.1
20220524045031 61 136 6.0 9.0 0.00 0.00 0.00 76 1023.0
20220524044539 61 109 4.0 8.0 0.00 0.00 0.00 76 1023.0
20220524044031 61 104 5.0 8.0 0.00 0.00 0.00 75 1023.0
20220524043535 61 117 6.0 8.0 0.00 0.00 0.00 75 1023.0
20220524043050 61 109 3.0 7.0 0.00 0.00 0.00 74 1023.2
20220524042533 61 165 3.0 7.0 0.00 0.00 0.00 73 1023.4
20220524042031 61 130 1.0 7.0 0.00 0.00 0.00 73 1023.5
20220524041547 62 0 1.0 7.0 0.00 0.00 0.00 73 1023.4
20220524041034 62 178 3.0 7.0 0.00 0.00 0.00 72 1023.1
20220524040533 62 142 2.0 7.0 0.00 0.00 0.00 72 1023.1
20220524040059 62 132 3.0 7.0 0.00 0.00 0.00 71 1023.1
20220524035533 62 137 3.0 8.0 0.00 0.03 0.00 69 1023.1
20220524035037 62 140 2.0 8.0 0.00 0.03 0.00 69 1023.2
20220524034548 62 120 4.0 7.0 0.00 0.03 0.00 67 1023.1
20220524034033 62 112 4.0 7.0 0.00 0.03 0.00 67 1023.1
20220524033533 62 118 3.0 7.0 0.00 0.03 0.00 68 1023.1
20220524033040 62 119 3.0 6.0 0.00 0.03 0.00 66 1023.4
20220524032532 63 117 3.0 5.0 0.00 0.03 0.00 66 1023.5
20220524032033 63 136 1.0 4.0 0.00 0.03 0.00 65 1023.6
20220524031546 63 132 0.0 3.0 0.00 0.03 0.00 65 1023.7
20220524031035 62 0 0.0 3.0 0.00 0.03 0.00 64 1023.7
20220524030533 63 0 1.0 5.0 0.00 0.03 0.00 65 1023.8
20220524030044 63 146 1.0 5.0 0.00 0.03 0.00 64 1023.7